OBJECT B, 59774

Orbit data source: Space-Track

You're viewing an Uncataloged Satellite

Recently launched and/or uncataloged satellites may have evolving metadata. Metadata may include but not limited to: Owner, Maufacturer, Bus, Motor, and Mission.

OBJECT B, 59774 is a satellite owned by Sputniks (CIS) in SSO that was launched on Thu, 16 May 2024 UTC via a SOYUZ-2-1B launch vehicle from the Plesetsk Missile And Space Complex (PKMTR). Unknown objects in Earth's orbit typically refer to objects detected orbiting the Earth but have not yet been identified or cataloged. These objects could be anything from previously untracked satellites, spent rocket stages, debris from satellite collisions, or even natural meteoroids temporarily captured by Earth's gravity.

Loading next visibility...
OBJECT B details
Identifier
59774, 2024-092B
Orbit
SSO
Last TLE update12 hours ago
Origin
Flag of CISSputniks (CIS)
ManufacturerSputniks
MissionOperational spacecraft
Bus & MotorCUBESAT 12U, Unknown motor
Mass20 kg wet, 20 kg dry
Launch date (UTC)
2024-05-16 (7 months ago)
Launch vehicle
SOYUZ-2-1B
Launch site
Plesetsk Missile And Space Complex (PKMTR)
Object typeUnknown
Shape & HBRUnknown
Radar Cross SectionMedium (>0.1 m² and <1 m²)

Expand to show TLE details & history

TLE from 12 hours ago
0 OBJECT B
1 59774U 24092B   24348.10413065  .00010175  00000-0  55175-3 0  9990
2 59774  97.6028  98.8768 0011031 304.1166  55.9019 15.14722413 31710
Epoch: 2024-12-13T02:29Z
Definitive object data (Epoch: 2024-12-13T02:29:56.888Z)
Latitude0.00004°
Longitude-20.88514°
Altitude520.637 km
Speed7.605 km/s
True Right ascension06h 35m 30s
True Declination0° 00' 00"
Sunlit
Object was in full shadow at TLE epoch
Visualization TLE readout
Latitude-49.66024°
Longitude-11.37346°
Altitude533.553 km
Speed7.599 km/s
Apparent Right ascension04h 11m 27s
Apparent Declination-53° 40' 13"
Sunlit
Object is in daylight
Visualization observer readout
Local Sidereal Time13:28:24
Azimuth229.534° WSW
Elevation-59.442°
Doppler factor1
Orbital elements
Apogee altitude526.411 km
Perigee altitude511.195 km
Semi-major axis6,896.94 km
Eccentricity0.0011031
Inclination97.6028°
RAAN98.8768°
Arg. of periapsis304.1166°
True anomaly56.00666°
Mean anomaly55.9019°
Eccentric anomaly55.95427°
Mean motion3.7893 °/min
BSTAR0.00055175
Orbital period95 mins
Loading maneuver chart data...
Loading historical data...
Loading historical data...
Loading historical data...
Loading historical data...
Loading historical data...
Loading historical data...
Loading historical data...

OBJECT B Visibility forecast

Observer location: undefined°, undefined

Span
Click to sort rows by Start time (UTC) header in descending order
Start Az.
Max El. time (UTC)
Max El. Az.
Max El.
End time (UTC)
End Az.
7 mins2024-12-13 20:29:44.488Z11.685° NNE2024-12-13 20:33:44.488Z197.134° SSW42.489°2024-12-13 20:36:44.488Z193.977° SSW
5 mins2024-12-14 07:10:44.488Z133.494° SE2024-12-14 07:12:44.488Z91.633° ESE30.564°2024-12-14 07:15:44.488Z11.474° NNE
|